Terminal Aerodrome Forecast
Issued by NWS Omaha/Valley, NE

Home | Current Version | Previous Version | Text Only | Print | Product List | Glossary On
Versions: 1 2 3 4 5 6 7 8 9 10 11 12 13 14 15 16 17 18 19 20 21 22 23 24 25 26 27 28 29 30 31 32 33 34 35 36 37 38
000
FTUS43 KOAX 211826 AAA
TAFOMA
TAF AMD
KOMA 211826Z 2118/2218 16013G23KT P6SM SKC
      TEMPO 2118/2122 BKN035
     FM220500 18012G22KT P6SM FEW250 WS020/20050KT
     FM221300 16015G22KT P6SM SKC=

USA.gov is the U.S. government's official web portal to all federal, state and local government web resources and services.